Gijón Campus
latitud = 43° 31' 23''N | Longitud = 005° 37' 16''W | altura s/n = 26m
fecha-hora | temperatura | viento dirección-velocidad-rachas | humedad | presión

  • 11-04-2019 21:00:00 | 10.00°C | Oeste-9.00 km/h - 17.00 km/h | 72.00% | 977.90 hPa
  • 11-04-2019 20:00:00 | 10.80°C | Oeste-10.00 km/h - 26.00 km/h | 68.00% | 977.50 hPa
  • 11-04-2019 19:00:00 | 11.20°C | Oeste-14.00 km/h - 30.00 km/h | 68.00% | 977.30 hPa
  • 11-04-2019 18:00:00 | 11.60°C | Oeste-13.00 km/h - 28.00 km/h | 73.00% | 977.10 hPa
  • 11-04-2019 17:00:00 | 11.50°C | Noroeste-7.00 km/h - 21.00 km/h | 70.00% | 977.00 hPa
  • 11-04-2019 16:00:00 | 11.50°C | Noroeste-12.00 km/h - 21.00 km/h | 65.00% | 977.20 hPa
  • 11-04-2019 15:00:00 | 11.00°C | Oeste-11.00 km/h - 24.00 km/h | 69.00% | 977.20 hPa
  • 11-04-2019 14:00:00 | 11.20°C | Oeste-12.00 km/h - 32.00 km/h | 66.00% | 977.30 hPa
  • 11-04-2019 13:00:00 | 11.40°C | Oeste-17.00 km/h - 30.00 km/h | 62.00% | 977.40 hPa
  • 11-04-2019 12:00:00 | 10.30°C | Oeste-17.00 km/h - 30.00 km/h | 67.00% | 977.60 hPa
  • 11-04-2019 11:00:00 | 11.40°C | Oeste-18.00 km/h - 30.00 km/h | 61.00% | 977.10 hPa
  • 11-04-2019 10:00:00 | 10.50°C | Oeste-18.00 km/h - 30.00 km/h | 64.00% | 976.80 hPa
  • 11-04-2019 09:00:00 | 8.90°C | Oeste-7.00 km/h - 18.00 km/h | 72.00% | 977.00 hPa
  • 11-04-2019 08:00:00 | 8.10°C | Oeste-14.00 km/h - 22.00 km/h | 72.00% | 976.70 hPa
  • 11-04-2019 07:00:00 | 8.40°C | Oeste-14.00 km/h - 22.00 km/h | 74.00% | 976.30 hPa
  • 11-04-2019 06:00:00 | 8.30°C | Oeste-12.00 km/h - 18.00 km/h | 77.00% | 976.50 hPa
  • 11-04-2019 05:00:00 | 8.50°C | Oeste-10.00 km/h - 17.00 km/h | 74.00% | 976.40 hPa
  • 11-04-2019 04:00:00 | 8.90°C | Oeste-10.00 km/h - 18.00 km/h | 73.00% | 976.30 hPa
  • 11-04-2019 03:00:00 | 9.00°C | Oeste-9.00 km/h - 0.00 km/h | 76.00% | 976.40 hPa
  • 11-04-2019 02:00:00 | 9.20°C | Oeste-9.00 km/h - 22.00 km/h | 77.00% | 976.70 hPa
  • 11-04-2019 01:00:00 | 8.50°C | Oeste-8.00 km/h - 15.00 km/h | 78.00% | 976.50 hPa
  • 11-04-2019 00:00:00 | 8.70°C | Oeste-9.00 km/h - 21.00 km/h | 77.00% | 976.10 hPa
  • 10-04-2019 23:00:00 | 9.70°C | Oeste-9.00 km/h - 24.00 km/h | 71.00% | 976.10 hPa
  • 10-04-2019 22:00:00 | 10.10°C | Oeste-13.00 km/h - 28.00 km/h | 68.00% | 975.60 hPa
    • diseño web asturias Información sobre el estado de las mareas, altura de la marejada, temperatura del agua y otros datos de Gijón en Asturias.

      Surf Gijón